Powrót do katalogu

FENGYUN 1C DEB

AktywnySSO
NORAD 31622·DEBRIS·🇨🇳 China

Wystrzelony May 10, 1999 z Taiyuan Satellite Launch Center

Loading…

Następne Przeloty (najbliższe 24 godziny)

TLE

ŚwieżeSource: Space-Track

Epoka: Sep 14, 2026, 13:38 UTC

1 31622U 99025CAC 26257.56871383  .00003493  00000-0  11228-2 0  9997
2 31622  98.8197   4.8165 0015031 239.8654 241.8926 14.39971229997384

Śledź FENGYUN 1C DEB w czasie rzeczywistym z AllMySat

Download on the App Store